Location: Celina Division
(33.3022°N, 96.7580°W)
Time: 22:23:03
(UTC+00:00)

Tiangong - Visible Passes

Search period start: 26 November 2022 00:00
Search period end: 06 December 2022 00:00
Orbit: 387 x 394 km, 41.5° (Epoch: 26 November)

Date Brightness Start Highest point End Pass type
(mag) Time Alt. Az. Time Alt. Az. Time Alt. Az.
26 Nov 0.1 00:46:09 10° S 00:47:34 15° SSE 00:47:34 15° SSE visible
27 Nov 0.3 01:24:01 10° SW 01:25:15 21° SW 01:25:15 21° SW visible
28 Nov -1.1 00:26:35 10° SSW 00:29:31 34° SE 00:30:29 27° ESE visible
29 Nov -1.1 01:05:27 10° WSW 01:07:57 46° WNW 01:07:57 46° WNW visible
30 Nov -2.1 00:07:35 10° WSW 00:10:46 77° SSE 00:13:00 18° ENE visible
30 Nov 1.4 01:45:14 10° WNW 01:45:20 10° WNW 01:45:20 10° WNW visible
01 Dec -1.0 00:47:01 10° W 00:49:57 33° NNW 00:50:17 32° N visible
01 Dec -1.6 23:48:51 10° WSW 23:51:59 52° NNW 23:55:07 10° NE visible
02 Dec 0.9 01:26:55 10° WNW 01:27:30 13° NW 01:27:30 13° NW visible
03 Dec -0.4 00:28:36 10° WNW 00:31:15 23° NNW 00:32:19 20° NNE visible
04 Dec 0.4 01:08:22 10° NW 01:09:26 15° NNW 01:09:26 15° NNW visible
05 Dec -0.2 00:10:04 10° NW 00:12:28 19° N 00:14:12 13° NNE visible
